Time,TemperatureF,DewpointF,PressureIn,WindDirection,WindDirectionDegrees,WindSpeedMPH,WindSpeedGustMPH,Humidity,HourlyPrecipIn,Conditions,Clouds,dailyrainin,SoftwareType,DateUTC
2013-10-10 00:01:00,69.7,65.7,30.02,NNW,340,0.0,0.0,87,0.00,,,0.00,WeatherCatV1.21B27,2013-10-10 04:01:00,
2013-10-10 00:02:00,69.6,65.6,30.02,NNW,338,0.0,1.0,87,0.00,,,0.00,WeatherCatV1.21B27,2013-10-10 04:02:00,
2013-10-10 00:03:00,69.6,65.6,30.03,NNW,338,2.0,3.0,87,0.00,,,0.00,WeatherCatV1.21B27,2013-10-10 04:03:00,
2013-10-10 00:08:00,69.5,65.4,30.02,NNW,344,0.0,0.0,87,0.00,,,0.00,WeatherCatV1.21B27,2013-10-10 04:08:00,
2013-10-10 00:13:00,69.3,65.3,30.02,North,10,1.0,4.0,87,0.00,,,0.00,WeatherCatV1.21B27,2013-10-10 04:13:00,
2013-10-10 00:18:00,69.2,65.2,30.02,North,355,1.0,2.0,87,0.00,,,0.00,WeatherCatV1.21B27,2013-10-10 04:18:00,
2013-10-10 00:23:00,69.1,65.4,30.02,North,0,0.0,5.0,88,0.00,,,0.00,WeatherCatV1.21B27,2013-10-10 04:23:00,
2013-10-10 00:28:00,69.1,65.4,30.02,NNE,17,0.0,1.0,88,0.00,,,0.00,WeatherCatV1.21B27,2013-10-10 04:28:00,
2013-10-10 00:33:00,69.0,65.3,30.02,NNE,15,2.0,2.0,88,0.00,,,0.00,WeatherCatV1.21B27,2013-10-10 04:33:00,
2013-10-10 00:38:00,69.0,65.3,30.02,NNE,27,0.0,0.0,88,0.00,,,0.00,WeatherCatV1.21B27,2013-10-10 04:38:00,
2013-10-10 00:43:00,68.9,65.2,30.02,NNE,27,0.0,0.0,88,0.00,,,0.00,WeatherCatV1.21B27,2013-10-10 04:43:00,
2013-10-10 00:48:00,68.8,65.1,30.02,NE,51,0.0,0.0,88,0.00,,,0.00,WeatherCatV1.21B27,2013-10-10 04:48:00,
2013-10-10 00:53:00,68.7,65.0,30.02,NNE,22,0.0,1.0,88,0.00,,,0.00,WeatherCatV1.21B27,2013-10-10 04:53:00,
2013-10-10 00:58:00,68.6,64.9,30.02,NNE,19,0.0,0.0,88,0.00,,,0.00,WeatherCatV1.21B27,2013-10-10 04:58:00,
2013-10-10 01:03:00,68.6,64.9,30.02,NNE,16,2.0,5.0,88,0.00,,,0.00,WeatherCatV1.21B27,2013-10-10 05:03:00,
2013-10-10 01:08:00,68.5,64.8,30.02,East,87,1.0,4.0,88,0.00,,,0.00,WeatherCatV1.21B27,2013-10-10 05:08:00,
2013-10-10 01:13:00,68.5,64.8,30.02,NNE,22,0.0,3.0,88,0.00,,,0.00,WeatherCatV1.21B27,2013-10-10 05:13:00,
2013-10-10 01:18:00,68.5,64.8,30.01,North,355,0.0,2.0,88,0.00,,,0.00,WeatherCatV1.21B27,2013-10-10 05:18:00,
2013-10-10 01:23:00,68.4,64.7,30.01,NNE,16,0.0,4.0,88,0.00,,,0.00,WeatherCatV1.21B27,2013-10-10 05:23:00,
2013-10-10 01:28:00,68.3,64.6,30.01,NNE,16,0.0,0.0,88,0.00,,,0.00,WeatherCatV1.21B27,2013-10-10 05:28:00,
2013-10-10 01:33:00,68.2,64.5,30.01,NNE,17,0.0,5.0,88,0.00,,,0.00,WeatherCatV1.21B27,2013-10-10 05:33:00,
2013-10-10 01:38:00,68.2,64.8,30.01,North,355,0.0,1.0,89,0.00,,,0.00,WeatherCatV1.21B27,2013-10-10 05:38:00,
2013-10-10 01:43:00,68.1,64.7,30.01,NNW,347,0.0,4.0,89,0.00,,,0.00,WeatherCatV1.21B27,2013-10-10 05:43:00,
2013-10-10 01:48:00,68.0,64.6,30.01,North,349,0.0,1.0,89,0.00,,,0.00,WeatherCatV1.21B27,2013-10-10 05:48:00,
2013-10-10 01:53:00,68.0,64.6,30.01,North,349,0.0,2.0,89,0.00,,,0.00,WeatherCatV1.21B27,2013-10-10 05:53:00,
2013-10-10 01:58:00,67.9,64.5,30.01,NNE,18,2.0,4.0,89,0.00,,,0.00,WeatherCatV1.21B27,2013-10-10 05:58:00,
2013-10-10 02:04:00,67.8,64.4,30.01,East,88,0.0,1.0,89,0.00,,,0.00,WeatherCatV1.21B27,2013-10-10 06:04:00,
2013-10-10 02:09:00,67.8,64.4,30.01,WNW,300,0.0,4.0,89,0.00,,,0.00,WeatherCatV1.21B27,2013-10-10 06:09:00,
2013-10-10 02:14:00,67.7,64.3,30.01,NE,51,0.0,4.0,89,0.00,,,0.00,WeatherCatV1.21B27,2013-10-10 06:14:00,
2013-10-10 02:19:00,67.6,64.6,30.01,North,5,1.0,3.0,90,0.00,,,0.00,WeatherCatV1.21B27,2013-10-10 06:19:00,
2013-10-10 02:24:00,67.6,64.6,30.01,North,5,0.0,2.0,90,0.00,,,0.00,WeatherCatV1.21B27,2013-10-10 06:24:00,
2013-10-10 02:29:00,67.6,64.6,30.01,North,5,0.0,4.0,90,0.00,,,0.00,WeatherCatV1.21B27,2013-10-10 06:29:00,
2013-10-10 02:34:00,67.6,64.6,30.01,North,10,0.0,1.0,90,0.00,,,0.00,WeatherCatV1.21B27,2013-10-10 06:34:00,
2013-10-10 02:39:00,67.5,64.5,30.01,North,10,0.0,1.0,90,0.00,,,0.00,WeatherCatV1.21B27,2013-10-10 06:39:00,
2013-10-10 02:44:00,67.5,64.5,30.01,North,10,0.0,0.0,90,0.00,,,0.00,WeatherCatV1.21B27,2013-10-10 06:44:00,
2013-10-10 02:49:00,67.4,64.4,30.01,North,10,0.0,0.0,90,0.00,,,0.00,WeatherCatV1.21B27,2013-10-10 06:49:00,
2013-10-10 02:54:00,67.3,64.3,30.01,North,10,0.0,1.0,90,0.00,,,0.00,WeatherCatV1.21B27,2013-10-10 06:54:00,
2013-10-10 02:59:00,67.3,64.3,30.01,NE,53,0.0,1.0,90,0.00,,,0.00,WeatherCatV1.21B27,2013-10-10 06:59:00,
2013-10-10 03:04:00,67.2,64.2,30.01,NE,53,0.0,0.0,90,0.00,,,0.00,WeatherCatV1.21B27,2013-10-10 07:04:00,
2013-10-10 03:09:00,67.2,64.5,30.01,NE,53,0.0,1.0,91,0.00,,,0.00,WeatherCatV1.21B27,2013-10-10 07:09:00,
2013-10-10 03:14:00,67.1,64.4,30.00,NE,53,0.0,1.0,91,0.00,,,0.00,WeatherCatV1.21B27,2013-10-10 07:14:00,
2013-10-10 03:19:00,67.1,64.4,30.01,ENE,68,0.0,0.0,91,0.00,,,0.00,WeatherCatV1.21B27,2013-10-10 07:19:00,
2013-10-10 03:24:00,67.1,64.4,30.00,ENE,68,0.0,0.0,91,0.00,,,0.00,WeatherCatV1.21B27,2013-10-10 07:24:00,
2013-10-10 03:29:00,67.1,64.4,30.00,ENE,65,0.0,3.0,91,0.00,,,0.00,WeatherCatV1.21B27,2013-10-10 07:29:00,
2013-10-10 03:34:00,67.0,64.3,30.00,ENE,65,0.0,0.0,91,0.00,,,0.00,WeatherCatV1.21B27,2013-10-10 07:34:00,
2013-10-10 03:39:00,67.0,64.3,30.00,ENE,65,0.0,0.0,91,0.00,,,0.00,WeatherCatV1.21B27,2013-10-10 07:39:00,
2013-10-10 03:44:00,67.0,64.3,30.00,ENE,65,0.0,0.0,91,0.00,,,0.00,WeatherCatV1.21B27,2013-10-10 07:44:00,
2013-10-10 03:49:00,66.9,64.2,30.00,ENE,65,0.0,1.0,91,0.00,,,0.00,WeatherCatV1.21B27,2013-10-10 07:49:00,
2013-10-10 03:54:00,66.9,64.2,30.00,ENE,65,0.0,0.0,91,0.00,,,0.00,WeatherCatV1.21B27,2013-10-10 07:54:00,
2013-10-10 03:59:00,66.8,64.1,30.00,ENE,65,0.0,0.0,91,0.00,,,0.00,WeatherCatV1.21B27,2013-10-10 07:59:00,
2013-10-10 04:04:00,66.8,64.1,30.00,ENE,65,0.0,0.0,91,0.00,,,0.00,WeatherCatV1.21B27,2013-10-10 08:04:00,
2013-10-10 04:09:00,66.8,64.1,30.00,ENE,65,0.0,1.0,91,0.00,,,0.00,WeatherCatV1.21B27,2013-10-10 08:09:00,
2013-10-10 04:14:00,66.7,64.3,30.00,ENE,65,0.0,0.0,92,0.00,,,0.00,WeatherCatV1.21B27,2013-10-10 08:14:00,
2013-10-10 04:19:00,66.7,64.3,30.00,ENE,65,0.0,0.0,92,0.00,,,0.00,WeatherCatV1.21B27,2013-10-10 08:19:00,
2013-10-10 04:24:00,66.6,64.2,30.00,ENE,65,0.0,1.0,92,0.00,,,0.00,WeatherCatV1.21B27,2013-10-10 08:24:00,
2013-10-10 04:29:00,66.6,64.2,30.00,ENE,64,0.0,0.0,92,0.00,,,0.00,WeatherCatV1.21B27,2013-10-10 08:29:00,
2013-10-10 04:34:00,66.6,64.2,30.00,NNE,17,0.0,1.0,92,0.00,,,0.00,WeatherCatV1.21B27,2013-10-10 08:34:00,
2013-10-10 04:39:00,66.6,64.2,30.00,NNE,17,0.0,1.0,92,0.00,,,0.00,WeatherCatV1.21B27,2013-10-10 08:39:00,
2013-10-10 04:44:00,66.5,64.1,30.00,NNE,17,0.0,0.0,92,0.00,,,0.00,WeatherCatV1.21B27,2013-10-10 08:44:00,
2013-10-10 04:49:00,66.5,64.1,30.00,NNE,17,0.0,1.0,92,0.00,,,0.00,WeatherCatV1.21B27,2013-10-10 08:49:00,
2013-10-10 04:54:00,66.5,64.1,30.00,NNE,17,0.0,0.0,92,0.00,,,0.00,WeatherCatV1.21B27,2013-10-10 08:54:00,
2013-10-10 04:59:00,66.5,64.1,30.00,NNE,17,0.0,2.0,92,0.00,,,0.00,WeatherCatV1.21B27,2013-10-10 08:59:00,
2013-10-10 05:04:00,66.4,64.0,30.00,NNE,17,0.0,1.0,92,0.00,,,0.00,WeatherCatV1.21B27,2013-10-10 09:04:00,
2013-10-10 05:09:00,66.5,64.4,30.00,NNE,17,0.0,1.0,93,0.00,,,0.00,WeatherCatV1.21B27,2013-10-10 09:09:00,
2013-10-10 05:14:00,66.5,64.4,30.00,NNE,17,0.0,1.0,93,0.00,,,0.00,WeatherCatV1.21B27,2013-10-10 09:14:00,
2013-10-10 05:19:00,66.5,64.4,30.00,NNE,17,0.0,1.0,93,0.00,,,0.00,WeatherCatV1.21B27,2013-10-10 09:19:00,
2013-10-10 05:24:00,66.5,64.4,30.00,NNE,17,0.0,1.0,93,0.00,,,0.00,WeatherCatV1.21B27,2013-10-10 09:24:00,
2013-10-10 05:29:00,66.5,64.4,30.00,NNE,17,0.0,4.0,93,0.00,,,0.00,WeatherCatV1.21B27,2013-10-10 09:29:00,
2013-10-10 05:34:00,66.5,64.1,30.00,NNE,17,0.0,1.0,92,0.00,,,0.00,WeatherCatV1.21B27,2013-10-10 09:34:00,
2013-10-10 05:39:00,66.4,64.0,30.00,NNE,17,0.0,0.0,92,0.00,,,0.00,WeatherCatV1.21B27,2013-10-10 09:39:00,
2013-10-10 05:44:00,66.4,64.0,30.00,NNE,17,0.0,1.0,92,0.00,,,0.00,WeatherCatV1.21B27,2013-10-10 09:44:00,
2013-10-10 05:49:00,66.4,64.0,30.00,NNE,17,0.0,3.0,92,0.00,,,0.00,WeatherCatV1.21B27,2013-10-10 09:49:00,
2013-10-10 05:54:00,66.4,64.0,30.00,NNE,17,0.0,0.0,92,0.00,,,0.00,WeatherCatV1.21B27,2013-10-10 09:54:00,
2013-10-10 05:59:00,66.4,64.0,30.01,NNE,17,0.0,1.0,92,0.00,,,0.00,WeatherCatV1.21B27,2013-10-10 09:59:00,
2013-10-10 06:04:00,66.4,64.3,30.01,NNE,17,0.0,0.0,93,0.00,,,0.00,WeatherCatV1.21B27,2013-10-10 10:04:00,
2013-10-10 06:09:00,66.4,64.3,30.01,NNE,17,0.0,1.0,93,0.00,,,0.00,WeatherCatV1.21B27,2013-10-10 10:09:00,
2013-10-10 06:14:00,66.4,64.3,30.01,NNE,17,0.0,0.0,93,0.00,,,0.00,WeatherCatV1.21B27,2013-10-10 10:14:00,
2013-10-10 06:19:00,66.4,64.3,30.01,NNE,17,0.0,0.0,93,0.00,,,0.00,WeatherCatV1.21B27,2013-10-10 10:19:00,
2013-10-10 06:24:00,66.5,64.4,30.01,NNE,17,0.0,0.0,93,0.00,,,0.00,WeatherCatV1.21B27,2013-10-10 10:24:00,
2013-10-10 06:29:00,66.5,64.4,30.01,NNE,17,0.0,0.0,93,0.00,,,0.00,WeatherCatV1.21B27,2013-10-10 10:29:00,
2013-10-10 06:34:00,66.5,64.4,30.01,NNE,17,0.0,0.0,93,0.00,,,0.00,WeatherCatV1.21B27,2013-10-10 10:34:00,
2013-10-10 06:39:00,66.5,64.4,30.01,NNE,17,1.0,4.0,93,0.00,,,0.00,WeatherCatV1.21B27,2013-10-10 10:39:00,
2013-10-10 06:44:00,66.5,64.4,30.01,NNE,19,0.0,1.0,93,0.00,,,0.00,WeatherCatV1.21B27,2013-10-10 10:44:00,
2013-10-10 06:49:00,66.5,64.4,30.02,NNE,19,0.0,0.0,93,0.00,,,0.00,WeatherCatV1.21B27,2013-10-10 10:49:00,
2013-10-10 06:54:00,66.5,64.4,30.01,NNE,19,0.0,0.0,93,0.00,,,0.00,WeatherCatV1.21B27,2013-10-10 10:54:00,
2013-10-10 06:59:00,66.5,64.4,30.02,NNE,19,1.0,1.0,93,0.00,,,0.00,WeatherCatV1.21B27,2013-10-10 10:59:00,
2013-10-10 07:04:00,66.5,64.4,30.02,NNE,19,0.0,1.0,93,0.00,,,0.00,WeatherCatV1.21B27,2013-10-10 11:04:00,
2013-10-10 07:09:00,66.5,64.4,30.01,NNE,18,0.0,2.0,93,0.00,,,0.00,WeatherCatV1.21B27,2013-10-10 11:09:00,
2013-10-10 07:14:00,66.5,64.1,30.01,NNE,18,1.0,2.0,92,0.00,,,0.00,WeatherCatV1.21B27,2013-10-10 11:14:00,
2013-10-10 07:19:00,66.5,64.1,30.01,NNE,15,0.0,1.0,92,0.00,,,0.00,WeatherCatV1.21B27,2013-10-10 11:19:00,
2013-10-10 07:24:00,66.5,64.1,30.01,NNE,15,1.0,1.0,92,0.00,,,0.00,WeatherCatV1.21B27,2013-10-10 11:24:00,
2013-10-10 07:29:00,66.5,64.1,30.01,NNE,15,0.0,0.0,92,0.00,,,0.00,WeatherCatV1.21B27,2013-10-10 11:29:00,
2013-10-10 07:34:00,66.5,64.1,30.01,NNE,15,0.0,0.0,92,0.00,,,0.00,WeatherCatV1.21B27,2013-10-10 11:34:00,
2013-10-10 07:39:00,66.5,64.1,30.02,NNE,13,0.0,0.0,92,0.00,,,0.00,WeatherCatV1.21B27,2013-10-10 11:39:00,
2013-10-10 07:44:00,66.5,64.1,30.02,NNE,13,0.0,0.0,92,0.00,,,0.00,WeatherCatV1.21B27,2013-10-10 11:44:00,
2013-10-10 07:49:00,66.6,64.2,30.02,NNE,13,1.0,4.0,92,0.00,,,0.00,WeatherCatV1.21B27,2013-10-10 11:49:00,
2013-10-10 07:54:00,66.7,64.3,30.02,NNE,13,0.0,0.0,92,0.00,,,0.00,WeatherCatV1.21B27,2013-10-10 11:54:00,
2013-10-10 07:59:00,66.8,64.4,30.02,NNE,13,0.0,1.0,92,0.00,,,0.00,WeatherCatV1.21B27,2013-10-10 11:59:00,
2013-10-10 08:04:00,67.0,64.6,30.02,NNE,13,1.0,2.0,92,0.00,,,0.00,WeatherCatV1.21B27,2013-10-10 12:04:00,
2013-10-10 08:09:00,67.2,64.8,30.02,North,5,0.0,2.0,92,0.00,,,0.00,WeatherCatV1.21B27,2013-10-10 12:09:00,
2013-10-10 08:14:00,67.4,65.0,30.02,NW,318,2.0,5.0,92,0.00,,,0.00,WeatherCatV1.21B27,2013-10-10 12:14:00,
2013-10-10 08:20:00,67.6,64.9,30.02,NW,326,4.0,4.0,91,0.00,,,0.00,WeatherCatV1.21B27,2013-10-10 12:20:00,
2013-10-10 08:25:00,67.8,65.1,30.02,North,349,4.0,4.0,91,0.00,,,0.00,WeatherCatV1.21B27,2013-10-10 12:25:00,
2013-10-10 08:30:00,68.1,65.4,30.02,NNW,340,1.0,2.0,91,0.00,,,0.00,WeatherCatV1.21B27,2013-10-10 12:30:00,
2013-10-10 08:35:00,68.4,65.3,30.02,North,355,1.0,4.0,90,0.00,,,0.00,WeatherCatV1.21B27,2013-10-10 12:35:00,
2013-10-10 08:40:00,68.7,65.3,30.02,NNE,19,2.0,5.0,89,0.00,,,0.00,WeatherCatV1.21B27,2013-10-10 12:40:00,
2013-10-10 08:45:00,69.1,65.7,30.03,North,9,1.0,1.0,89,0.00,,,0.00,WeatherCatV1.21B27,2013-10-10 12:45:00,
2013-10-10 08:50:00,69.4,65.7,30.03,NW,325,2.0,5.0,88,0.00,,,0.00,WeatherCatV1.21B27,2013-10-10 12:50:00,
2013-10-10 08:55:00,69.8,66.1,30.03,NNE,19,2.0,2.0,88,0.00,,,0.00,WeatherCatV1.21B27,2013-10-10 12:55:00,
2013-10-10 09:00:00,70.1,66.0,30.03,North,5,0.0,2.0,87,0.00,,,0.00,WeatherCatV1.21B27,2013-10-10 13:00:00,
2013-10-10 09:05:00,70.4,66.0,30.03,North,0,1.0,6.0,86,0.00,,,0.00,WeatherCatV1.21B27,2013-10-10 13:05:00,
2013-10-10 09:10:00,70.8,66.4,30.03,NE,37,3.0,5.0,86,0.00,,,0.00,WeatherCatV1.21B27,2013-10-10 13:10:00,
2013-10-10 09:15:00,71.1,66.7,30.03,NNW,336,1.0,7.0,86,0.00,,,0.00,WeatherCatV1.21B27,2013-10-10 13:15:00,
2013-10-10 09:20:00,71.4,66.7,30.03,North,355,0.0,4.0,85,0.00,,,0.00,WeatherCatV1.21B27,2013-10-10 13:20:00,
2013-10-10 09:25:00,71.6,66.5,30.03,North,0,1.0,4.0,84,0.00,,,0.00,WeatherCatV1.21B27,2013-10-10 13:25:00,
2013-10-10 09:30:00,71.9,66.8,30.04,North,5,2.0,7.0,84,0.00,,,0.00,WeatherCatV1.21B27,2013-10-10 13:30:00,
2013-10-10 09:35:00,72.2,66.7,30.04,West,281,1.0,6.0,83,0.00,,,0.00,WeatherCatV1.21B27,2013-10-10 13:35:00,
2013-10-10 09:40:00,72.5,66.7,30.04,SE,127,1.0,8.0,82,0.00,,,0.00,WeatherCatV1.21B27,2013-10-10 13:40:00,
2013-10-10 09:45:00,72.8,67.0,30.04,NNW,348,0.0,8.0,82,0.00,,,0.00,WeatherCatV1.21B27,2013-10-10 13:45:00,
2013-10-10 09:50:00,73.0,67.2,30.04,NE,34,0.0,4.0,82,0.00,,,0.00,WeatherCatV1.21B27,2013-10-10 13:50:00,
2013-10-10 09:55:00,73.4,67.6,30.04,ENE,57,2.0,6.0,82,0.00,,,0.00,WeatherCatV1.21B27,2013-10-10 13:55:00,
2013-10-10 10:00:00,73.8,67.6,30.04,North,5,0.0,4.0,81,0.00,,,0.00,WeatherCatV1.21B27,2013-10-10 14:00:00,
2013-10-10 10:05:00,74.1,67.5,30.05,ENE,76,1.0,4.0,80,0.00,,,0.00,WeatherCatV1.21B27,2013-10-10 14:05:00,
2013-10-10 10:10:00,74.4,67.8,30.04,NNW,340,5.0,9.0,80,0.00,,,0.00,WeatherCatV1.21B27,2013-10-10 14:10:00,
2013-10-10 10:15:00,74.6,68.0,30.05,NE,49,1.0,5.0,80,0.00,,,0.00,WeatherCatV1.21B27,2013-10-10 14:15:00,
2013-10-10 10:20:00,74.9,68.3,30.05,ENE,75,4.0,6.0,80,0.00,,,0.00,WeatherCatV1.21B27,2013-10-10 14:20:00,
2013-10-10 10:25:00,75.5,68.5,30.05,NNE,19,1.0,7.0,79,0.00,,,0.00,WeatherCatV1.21B27,2013-10-10 14:25:00,
2013-10-10 10:30:00,75.9,68.5,30.05,North,350,2.0,6.0,78,0.00,,,0.00,WeatherCatV1.21B27,2013-10-10 14:30:00,
2013-10-10 10:35:00,76.4,69.0,30.05,North,355,3.0,7.0,78,0.00,,,0.00,WeatherCatV1.21B27,2013-10-10 14:35:00,
2013-10-10 10:40:00,76.7,68.6,30.05,North,9,4.0,6.0,76,0.00,,,0.00,WeatherCatV1.21B27,2013-10-10 14:40:00,
2013-10-10 10:45:00,76.9,68.7,30.05,North,5,0.0,6.0,76,0.00,,,0.00,WeatherCatV1.21B27,2013-10-10 14:45:00,
2013-10-10 10:50:00,77.4,68.8,30.05,NNW,338,1.0,8.0,75,0.00,,,0.00,WeatherCatV1.21B27,2013-10-10 14:50:00,
2013-10-10 10:55:00,77.5,68.9,30.05,NNW,338,3.0,6.0,75,0.00,,,0.00,WeatherCatV1.21B27,2013-10-10 14:55:00,
2013-10-10 11:00:00,77.7,69.1,30.05,NE,39,1.0,4.0,75,0.00,,,0.00,WeatherCatV1.21B27,2013-10-10 15:00:00,
2013-10-10 11:05:00,78.2,69.6,30.05,North,351,4.0,6.0,75,0.00,,,0.00,WeatherCatV1.21B27,2013-10-10 15:05:00,
2013-10-10 11:10:00,78.5,69.5,30.05,NNW,327,0.0,4.0,74,0.00,,,0.00,WeatherCatV1.21B27,2013-10-10 15:10:00,
2013-10-10 11:15:00,78.9,69.9,30.05,NNE,22,4.0,4.0,74,0.00,,,0.00,WeatherCatV1.21B27,2013-10-10 15:15:00,
2013-10-10 11:20:00,79.2,69.8,30.05,NNE,30,4.0,5.0,73,0.00,,,0.00,WeatherCatV1.21B27,2013-10-10 15:20:00,
2013-10-10 11:25:00,79.4,69.6,30.05,East,81,0.0,5.0,72,0.00,,,0.00,WeatherCatV1.21B27,2013-10-10 15:25:00,
2013-10-10 11:30:00,79.9,70.0,30.05,ESE,120,6.0,6.0,72,0.00,,,0.00,WeatherCatV1.21B27,2013-10-10 15:30:00,
2013-10-10 11:35:00,80.3,70.0,30.05,NE,56,1.0,5.0,71,0.00,,,0.00,WeatherCatV1.21B27,2013-10-10 15:35:00,
2013-10-10 11:40:00,80.5,69.8,30.05,East,89,5.0,6.0,70,0.00,,,0.00,WeatherCatV1.21B27,2013-10-10 15:40:00,
2013-10-10 11:45:00,80.7,70.4,30.05,North,5,2.0,5.0,71,0.00,,,0.00,WeatherCatV1.21B27,2013-10-10 15:45:00,
2013-10-10 11:50:00,81.1,70.8,30.05,East,90,4.0,6.0,71,0.00,,,0.00,WeatherCatV1.21B27,2013-10-10 15:50:00,
2013-10-10 11:55:00,81.4,70.7,30.04,ENE,69,4.0,6.0,70,0.00,,,0.00,WeatherCatV1.21B27,2013-10-10 15:55:00,
2013-10-10 12:00:00,81.8,70.6,30.04,East,81,2.0,4.0,69,0.00,,,0.00,WeatherCatV1.21B27,2013-10-10 16:00:00,
2013-10-10 12:05:00,82.2,70.1,30.04,East,92,1.0,6.0,67,0.00,,,0.00,WeatherCatV1.21B27,2013-10-10 16:05:00,
2013-10-10 12:10:00,82.5,71.3,30.04,East,98,1.0,2.0,69,0.00,,,0.00,WeatherCatV1.21B27,2013-10-10 16:10:00,
2013-10-10 12:15:00,83.0,70.9,30.04,NNW,336,2.0,5.0,67,0.00,,,0.00,WeatherCatV1.21B27,2013-10-10 16:15:00,
2013-10-10 12:20:00,83.2,70.6,30.04,NNW,327,1.0,6.0,66,0.00,,,0.00,WeatherCatV1.21B27,2013-10-10 16:20:00,
2013-10-10 12:25:00,83.0,70.4,30.04,SE,142,0.0,0.0,66,0.00,,,0.00,WeatherCatV1.21B27,2013-10-10 16:25:00,
2013-10-10 12:30:00,83.1,70.5,30.04,NE,55,2.0,4.0,66,0.00,,,0.00,WeatherCatV1.21B27,2013-10-10 16:30:00,
2013-10-10 12:35:00,83.3,70.7,30.04,ENE,63,0.0,6.0,66,0.00,,,0.00,WeatherCatV1.21B27,2013-10-10 16:35:00,
2013-10-10 12:40:00,83.1,70.1,30.04,NNE,19,1.0,4.0,65,0.00,,,0.00,WeatherCatV1.21B27,2013-10-10 16:40:00,
2013-10-10 12:45:00,82.9,70.8,30.03,NW,321,2.0,4.0,67,0.00,,,0.00,WeatherCatV1.21B27,2013-10-10 16:45:00,
2013-10-10 12:50:00,82.9,70.3,30.03,NNW,335,5.0,5.0,66,0.00,,,0.00,WeatherCatV1.21B27,2013-10-10 16:50:00,
2013-10-10 12:55:00,82.8,70.2,30.03,NW,304,5.0,8.0,66,0.00,,,0.00,WeatherCatV1.21B27,2013-10-10 16:55:00,
2013-10-10 13:00:00,82.8,70.2,30.03,ENE,71,2.0,4.0,66,0.00,,,0.00,WeatherCatV1.21B27,2013-10-10 17:00:00,
2013-10-10 13:05:00,83.1,71.4,30.03,North,0,2.0,9.0,68,0.00,,,0.00,WeatherCatV1.21B27,2013-10-10 17:05:00,
2013-10-10 13:10:00,83.2,70.2,30.02,North,10,4.0,4.0,65,0.00,,,0.00,WeatherCatV1.21B27,2013-10-10 17:10:00,
2013-10-10 13:15:00,83.1,70.5,30.02,North,355,1.0,2.0,66,0.00,,,0.00,WeatherCatV1.21B27,2013-10-10 17:15:00,
2013-10-10 13:20:00,83.1,70.5,30.02,NNW,338,2.0,4.0,66,0.00,,,0.00,WeatherCatV1.21B27,2013-10-10 17:20:00,
2013-10-10 13:25:00,82.8,70.7,30.02,North,0,0.0,2.0,67,0.00,,,0.00,WeatherCatV1.21B27,2013-10-10 17:25:00,
2013-10-10 13:30:00,82.8,70.2,30.01,NNE,32,0.0,5.0,66,0.00,,,0.00,WeatherCatV1.21B27,2013-10-10 17:30:00,
2013-10-10 13:35:00,83.1,70.1,30.01,North,355,2.0,5.0,65,0.00,,,0.00,WeatherCatV1.21B27,2013-10-10 17:35:00,
2013-10-10 13:40:00,83.2,70.2,30.01,NW,318,6.0,8.0,65,0.00,,,0.00,WeatherCatV1.21B27,2013-10-10 17:40:00,
2013-10-10 13:45:00,83.0,70.0,30.01,NNW,328,2.0,4.0,65,0.00,,,0.00,WeatherCatV1.21B27,2013-10-10 17:45:00,
2013-10-10 13:50:00,83.1,70.1,30.00,North,0,1.0,6.0,65,0.00,,,0.00,WeatherCatV1.21B27,2013-10-10 17:50:00,
2013-10-10 13:55:00,83.4,69.9,30.00,ENE,67,0.0,5.0,64,0.00,,,0.00,WeatherCatV1.21B27,2013-10-10 17:55:00,
2013-10-10 14:00:00,83.7,70.2,30.00,East,90,1.0,4.0,64,0.00,,,0.00,WeatherCatV1.21B27,2013-10-10 18:00:00,
2013-10-10 14:05:00,83.7,69.7,29.99,ENE,57,2.0,4.0,63,0.00,,,0.00,WeatherCatV1.21B27,2013-10-10 18:05:00,
2013-10-10 14:10:00,84.1,69.6,29.99,East,80,4.0,6.0,62,0.00,,,0.00,WeatherCatV1.21B27,2013-10-10 18:10:00,
2013-10-10 14:15:00,84.7,70.7,29.99,NNW,335,2.0,4.0,63,0.00,,,0.00,WeatherCatV1.21B27,2013-10-10 18:15:00,
2013-10-10 14:20:00,85.2,70.2,29.99,NE,49,0.0,4.0,61,0.00,,,0.00,WeatherCatV1.21B27,2013-10-10 18:20:00,
2013-10-10 14:25:00,85.3,70.3,29.99,North,5,0.0,5.0,61,0.00,,,0.00,WeatherCatV1.21B27,2013-10-10 18:25:00,
2013-10-10 14:30:00,84.9,69.9,29.99,NW,316,0.0,5.0,61,0.00,,,0.00,WeatherCatV1.21B27,2013-10-10 18:30:00,
2013-10-10 14:35:00,84.6,69.6,29.98,North,0,1.0,4.0,61,0.00,,,0.00,WeatherCatV1.21B27,2013-10-10 18:35:00,
2013-10-10 14:40:00,84.7,70.7,29.99,NNW,340,1.0,5.0,63,0.00,,,0.00,WeatherCatV1.21B27,2013-10-10 18:40:00,
2013-10-10 14:45:00,84.7,70.7,29.98,ESE,113,2.0,3.0,63,0.00,,,0.00,WeatherCatV1.21B27,2013-10-10 18:45:00,
2013-10-10 14:50:00,84.9,69.4,29.98,East,90,1.0,6.0,60,0.00,,,0.00,WeatherCatV1.21B27,2013-10-10 18:50:00,
2013-10-10 14:55:00,85.4,70.4,29.98,NE,48,6.0,6.0,61,0.00,,,0.00,WeatherCatV1.21B27,2013-10-10 18:55:00,
2013-10-10 15:00:00,85.8,70.3,29.98,NNE,14,0.0,4.0,60,0.00,,,0.00,WeatherCatV1.21B27,2013-10-10 19:00:00,
2013-10-10 15:05:00,86.3,70.7,29.98,NE,45,0.0,2.0,60,0.00,,,0.00,WeatherCatV1.21B27,2013-10-10 19:05:00,
2013-10-10 15:10:00,86.5,69.9,29.98,North,9,1.0,4.0,58,0.00,,,0.00,WeatherCatV1.21B27,2013-10-10 19:10:00,
2013-10-10 15:15:00,86.5,69.4,29.98,East,81,1.0,7.0,57,0.00,,,0.00,WeatherCatV1.21B27,2013-10-10 19:15:00,
2013-10-10 15:20:00,86.7,70.1,29.98,NE,40,8.0,8.0,58,0.00,,,0.00,WeatherCatV1.21B27,2013-10-10 19:20:00,
2013-10-10 15:25:00,86.8,69.7,29.97,NE,41,4.0,4.0,57,0.00,,,0.00,WeatherCatV1.21B27,2013-10-10 19:25:00,
2013-10-10 15:30:00,86.9,70.3,29.97,NE,46,1.0,1.0,58,0.00,,,0.00,WeatherCatV1.21B27,2013-10-10 19:30:00,
2013-10-10 15:35:00,86.9,69.8,29.97,SE,125,1.0,5.0,57,0.00,,,0.00,WeatherCatV1.21B27,2013-10-10 19:35:00,
2013-10-10 15:40:00,86.9,70.8,29.97,NNW,327,0.0,5.0,59,0.00,,,0.00,WeatherCatV1.21B27,2013-10-10 19:40:00,
2013-10-10 15:46:00,86.8,69.2,29.97,ESE,108,5.0,6.0,56,0.00,,,0.00,WeatherCatV1.21B27,2013-10-10 19:46:00,
2013-10-10 15:51:00,86.7,69.6,29.97,East,81,2.0,2.0,57,0.00,,,0.00,WeatherCatV1.21B27,2013-10-10 19:51:00,
2013-10-10 15:56:00,86.6,68.5,29.97,ENE,65,2.0,5.0,55,0.00,,,0.00,WeatherCatV1.21B27,2013-10-10 19:56:00,
2013-10-10 16:01:00,86.6,69.5,29.96,ENE,78,1.0,2.0,57,0.00,,,0.00,WeatherCatV1.21B27,2013-10-10 20:01:00,
2013-10-10 16:06:00,86.7,69.6,29.97,ESE,115,1.0,6.0,57,0.00,,,0.00,WeatherCatV1.21B27,2013-10-10 20:06:00,
2013-10-10 16:11:00,86.8,68.7,29.96,SSE,159,0.0,6.0,55,0.00,,,0.00,WeatherCatV1.21B27,2013-10-10 20:11:00,
2013-10-10 16:16:00,86.8,69.2,29.96,NNW,333,1.0,6.0,56,0.00,,,0.00,WeatherCatV1.21B27,2013-10-10 20:16:00,
2013-10-10 16:21:00,86.6,69.0,29.96,North,355,2.0,9.0,56,0.00,,,0.00,WeatherCatV1.21B27,2013-10-10 20:21:00,
2013-10-10 16:26:00,86.3,69.2,29.96,NE,53,1.0,5.0,57,0.00,,,0.00,WeatherCatV1.21B27,2013-10-10 20:26:00,
2013-10-10 16:31:00,86.1,70.6,29.96,NNE,18,0.0,5.0,60,0.00,,,0.00,WeatherCatV1.21B27,2013-10-10 20:31:00,
2013-10-10 16:36:00,85.9,70.4,29.96,NNE,22,2.0,5.0,60,0.00,,,0.00,WeatherCatV1.21B27,2013-10-10 20:36:00,
2013-10-10 16:41:00,85.9,69.4,29.96,NNW,331,8.0,9.0,58,0.00,,,0.00,WeatherCatV1.21B27,2013-10-10 20:41:00,
2013-10-10 16:46:00,85.6,68.6,29.96,NNW,328,4.0,7.0,57,0.00,,,0.00,WeatherCatV1.21B27,2013-10-10 20:46:00,
2013-10-10 16:51:00,85.5,69.5,29.96,North,350,3.0,6.0,59,0.00,,,0.00,WeatherCatV1.21B27,2013-10-10 20:51:00,
2013-10-10 16:56:00,85.5,69.0,29.96,North,355,0.0,5.0,58,0.00,,,0.00,WeatherCatV1.21B27,2013-10-10 20:56:00,
2013-10-10 17:01:00,85.6,69.6,29.96,North,5,1.0,5.0,59,0.00,,,0.00,WeatherCatV1.21B27,2013-10-10 21:01:00,
2013-10-10 17:06:00,85.6,68.6,29.96,NW,309,0.0,7.0,57,0.00,,,0.00,WeatherCatV1.21B27,2013-10-10 21:06:00,
2013-10-10 17:11:00,85.7,69.2,29.96,North,5,0.0,0.0,58,0.00,,,0.00,WeatherCatV1.21B27,2013-10-10 21:11:00,
2013-10-10 17:16:00,85.6,68.6,29.96,ESE,109,0.0,0.0,57,0.00,,,0.00,WeatherCatV1.21B27,2013-10-10 21:16:00,
2013-10-10 17:21:00,85.6,69.1,29.96,NNW,342,0.0,2.0,58,0.00,,,0.00,WeatherCatV1.21B27,2013-10-10 21:21:00,
2013-10-10 17:26:00,85.7,68.7,29.96,NE,36,1.0,4.0,57,0.00,,,0.00,WeatherCatV1.21B27,2013-10-10 21:26:00,
2013-10-10 17:31:00,85.8,69.3,29.96,NNE,19,0.0,2.0,58,0.00,,,0.00,WeatherCatV1.21B27,2013-10-10 21:31:00,
2013-10-10 17:36:00,85.6,68.6,29.96,NNE,26,0.0,1.0,57,0.00,,,0.00,WeatherCatV1.21B27,2013-10-10 21:36:00,
2013-10-10 17:41:00,85.3,68.3,29.95,NNE,16,1.0,2.0,57,0.00,,,0.00,WeatherCatV1.21B27,2013-10-10 21:41:00,
2013-10-10 17:46:00,85.0,68.0,29.95,NE,36,0.0,1.0,57,0.00,,,0.00,WeatherCatV1.21B27,2013-10-10 21:46:00,
2013-10-10 17:51:00,84.7,68.3,29.95,ENE,69,0.0,3.0,58,0.00,,,0.00,WeatherCatV1.21B27,2013-10-10 21:51:00,
2013-10-10 17:56:00,84.6,68.2,29.95,NE,37,1.0,2.0,58,0.00,,,0.00,WeatherCatV1.21B27,2013-10-10 21:56:00,
2013-10-10 18:01:00,84.6,67.7,29.96,NNW,331,2.0,5.0,57,0.00,,,0.00,WeatherCatV1.21B27,2013-10-10 22:01:00,
2013-10-10 18:06:00,84.4,70.9,29.96,NW,325,0.0,4.0,64,0.00,,,0.00,WeatherCatV1.21B27,2013-10-10 22:06:00,
2013-10-10 18:11:00,83.9,71.7,29.96,NW,313,4.0,5.0,67,0.00,,,0.00,WeatherCatV1.21B27,2013-10-10 22:11:00,
2013-10-10 18:16:00,83.3,71.6,29.96,NNW,329,4.0,7.0,68,0.00,,,0.00,WeatherCatV1.21B27,2013-10-10 22:16:00,
2013-10-10 18:21:00,82.6,71.4,29.95,WNW,288,1.0,7.0,69,0.00,,,0.00,WeatherCatV1.21B27,2013-10-10 22:21:00,
2013-10-10 18:26:00,82.1,71.3,29.96,WNW,290,5.0,8.0,70,0.00,,,0.00,WeatherCatV1.21B27,2013-10-10 22:26:00,
2013-10-10 18:31:00,81.6,70.8,29.96,WNW,300,4.0,9.0,70,0.00,,,0.00,WeatherCatV1.21B27,2013-10-10 22:31:00,
2013-10-10 18:36:00,81.1,70.8,29.96,NNW,327,5.0,7.0,71,0.00,,,0.00,WeatherCatV1.21B27,2013-10-10 22:36:00,
2013-10-10 18:41:00,80.7,70.8,29.96,NNW,330,1.0,5.0,72,0.00,,,0.00,WeatherCatV1.21B27,2013-10-10 22:41:00,
2013-10-10 18:46:00,80.4,70.9,29.96,North,350,6.0,8.0,73,0.00,,,0.00,WeatherCatV1.21B27,2013-10-10 22:46:00,
2013-10-10 18:51:00,80.1,70.6,29.96,NNW,342,2.0,4.0,73,0.00,,,0.00,WeatherCatV1.21B27,2013-10-10 22:51:00,
2013-10-10 18:56:00,79.7,70.7,29.96,NNW,327,3.0,6.0,74,0.00,,,0.00,WeatherCatV1.21B27,2013-10-10 22:56:00,
2013-10-10 19:01:00,79.5,70.5,29.96,North,355,1.0,5.0,74,0.00,,,0.00,WeatherCatV1.21B27,2013-10-10 23:01:00,
2013-10-10 19:06:00,79.2,70.6,29.96,North,349,2.0,6.0,75,0.00,,,0.00,WeatherCatV1.21B27,2013-10-10 23:06:00,
2013-10-10 19:11:00,78.9,70.7,29.96,NW,314,0.0,3.0,76,0.00,,,0.00,WeatherCatV1.21B27,2013-10-10 23:11:00,
2013-10-10 19:16:00,78.7,70.5,29.96,NW,316,1.0,5.0,76,0.00,,,0.00,WeatherCatV1.21B27,2013-10-10 23:16:00,
2013-10-10 19:21:00,78.4,70.6,29.96,NNW,329,2.0,2.0,77,0.00,,,0.00,WeatherCatV1.21B27,2013-10-10 23:21:00,
2013-10-10 19:26:00,78.3,70.5,29.96,NNW,328,1.0,1.0,77,0.00,,,0.00,WeatherCatV1.21B27,2013-10-10 23:26:00,
2013-10-10 19:31:00,78.0,70.6,29.96,NW,324,1.0,4.0,78,0.00,,,0.00,WeatherCatV1.21B27,2013-10-10 23:31:00,
2013-10-10 19:36:00,77.8,70.4,29.97,NW,315,1.0,4.0,78,0.00,,,0.00,WeatherCatV1.21B27,2013-10-10 23:36:00,
2013-10-10 19:41:00,77.7,70.3,29.97,NW,315,1.0,2.0,78,0.00,,,0.00,WeatherCatV1.21B27,2013-10-10 23:41:00,
2013-10-10 19:46:00,77.5,70.1,29.97,NW,323,0.0,2.0,78,0.00,,,0.00,WeatherCatV1.21B27,2013-10-10 23:46:00,
2013-10-10 19:51:00,77.4,70.0,29.97,NW,323,1.0,2.0,78,0.00,,,0.00,WeatherCatV1.21B27,2013-10-10 23:51:00,
2013-10-10 19:56:00,77.3,70.3,29.97,NW,323,1.0,1.0,79,0.00,,,0.00,WeatherCatV1.21B27,2013-10-10 23:56:00,
2013-10-10 20:01:00,77.2,70.2,29.97,NW,323,0.0,0.0,79,0.00,,,0.00,WeatherCatV1.21B27,2013-10-11 00:01:00,
2013-10-10 20:06:00,77.1,70.1,29.97,NW,323,0.0,0.0,79,0.00,,,0.00,WeatherCatV1.21B27,2013-10-11 00:06:00,
2013-10-10 20:11:00,76.9,69.9,29.97,NW,323,0.0,0.0,79,0.00,,,0.00,WeatherCatV1.21B27,2013-10-11 00:11:00,
2013-10-10 20:16:00,76.9,69.9,29.97,NW,323,0.0,0.0,79,0.00,,,0.00,WeatherCatV1.21B27,2013-10-11 00:16:00,
2013-10-10 20:21:00,76.7,70.1,29.97,NW,323,0.0,0.0,80,0.00,,,0.00,WeatherCatV1.21B27,2013-10-11 00:21:00,
2013-10-10 20:26:00,76.6,69.9,29.97,NW,323,0.0,0.0,80,0.00,,,0.00,WeatherCatV1.21B27,2013-10-11 00:26:00,
2013-10-10 20:31:00,76.5,69.8,29.98,NW,323,0.0,0.0,80,0.00,,,0.00,WeatherCatV1.21B27,2013-10-11 00:31:00,
2013-10-10 20:36:00,76.4,69.8,29.98,NW,323,0.0,0.0,80,0.00,,,0.00,WeatherCatV1.21B27,2013-10-11 00:36:00,
2013-10-10 20:41:00,76.2,69.9,29.98,NW,323,0.0,0.0,81,0.00,,,0.00,WeatherCatV1.21B27,2013-10-11 00:41:00,
2013-10-10 20:46:00,76.1,69.8,29.98,NW,323,0.0,0.0,81,0.00,,,0.00,WeatherCatV1.21B27,2013-10-11 00:46:00,
2013-10-10 20:51:00,76.0,69.7,29.98,NW,323,0.0,0.0,81,0.00,,,0.00,WeatherCatV1.21B27,2013-10-11 00:51:00,
2013-10-10 20:56:00,75.8,69.5,29.98,NW,323,0.0,0.0,81,0.00,,,0.00,WeatherCatV1.21B27,2013-10-11 00:56:00,
2013-10-10 21:01:00,75.6,69.7,29.98,NW,323,0.0,0.0,82,0.00,,,0.00,WeatherCatV1.21B27,2013-10-11 01:01:00,
2013-10-10 21:06:00,75.5,69.6,29.99,NW,323,0.0,0.0,82,0.00,,,0.00,WeatherCatV1.21B27,2013-10-11 01:06:00,
2013-10-10 21:11:00,75.3,69.4,29.99,NW,323,0.0,0.0,82,0.00,,,0.00,WeatherCatV1.21B27,2013-10-11 01:11:00,
2013-10-10 21:16:00,75.2,69.3,29.99,NW,323,0.0,0.0,82,0.00,,,0.00,WeatherCatV1.21B27,2013-10-11 01:16:00,
2013-10-10 21:21:00,75.0,69.1,29.99,NW,323,0.0,0.0,82,0.00,,,0.00,WeatherCatV1.21B27,2013-10-11 01:21:00,
2013-10-10 21:26:00,74.9,69.4,29.99,NW,323,0.0,0.0,83,0.00,,,0.00,WeatherCatV1.21B27,2013-10-11 01:26:00,
2013-10-10 21:31:00,74.8,69.3,29.99,NW,323,0.0,0.0,83,0.00,,,0.00,WeatherCatV1.21B27,2013-10-11 01:31:00,
2013-10-10 21:36:00,74.7,69.2,29.99,NNW,329,0.0,0.0,83,0.00,,,0.00,WeatherCatV1.21B27,2013-10-11 01:36:00,
2013-10-10 21:41:00,74.6,69.1,29.99,NNW,336,0.0,0.0,83,0.00,,,0.00,WeatherCatV1.21B27,2013-10-11 01:41:00,
2013-10-10 21:46:00,74.4,68.9,29.99,NNW,336,0.0,0.0,83,0.00,,,0.00,WeatherCatV1.21B27,2013-10-11 01:46:00,
2013-10-10 21:51:00,74.3,68.8,29.99,NNW,336,0.0,0.0,83,0.00,,,0.00,WeatherCatV1.21B27,2013-10-11 01:51:00,
2013-10-10 21:56:00,74.3,68.8,29.99,NNW,336,0.0,0.0,83,0.00,,,0.00,WeatherCatV1.21B27,2013-10-11 01:56:00,
2013-10-10 22:01:00,74.2,68.7,29.99,NNW,336,0.0,0.0,83,0.00,,,0.00,WeatherCatV1.21B27,2013-10-11 02:01:00,
2013-10-10 22:06:00,74.2,68.7,30.00,NNW,336,0.0,0.0,83,0.00,,,0.00,WeatherCatV1.21B27,2013-10-11 02:06:00,
2013-10-10 22:11:00,74.2,68.7,30.00,NNW,336,0.0,0.0,83,0.00,,,0.00,WeatherCatV1.21B27,2013-10-11 02:11:00,
2013-10-10 22:16:00,74.1,68.6,30.00,NNW,336,0.0,0.0,83,0.00,,,0.00,WeatherCatV1.21B27,2013-10-11 02:16:00,
2013-10-10 22:21:00,74.0,68.8,30.00,NNW,336,0.0,0.0,84,0.00,,,0.00,WeatherCatV1.21B27,2013-10-11 02:21:00,
2013-10-10 22:26:00,73.9,68.8,30.00,NNW,336,0.0,0.0,84,0.00,,,0.00,WeatherCatV1.21B27,2013-10-11 02:26:00,
2013-10-10 22:31:00,73.8,68.7,30.00,NNW,336,0.0,0.0,84,0.00,,,0.00,WeatherCatV1.21B27,2013-10-11 02:31:00,
2013-10-10 22:36:00,73.7,68.6,30.00,North,350,0.0,0.0,84,0.00,,,0.00,WeatherCatV1.21B27,2013-10-11 02:36:00,
2013-10-10 22:41:00,73.6,68.4,30.00,North,350,0.0,0.0,84,0.00,,,0.00,WeatherCatV1.21B27,2013-10-11 02:41:00,
2013-10-10 22:46:00,73.5,68.7,30.00,North,350,0.0,0.0,85,0.00,,,0.00,WeatherCatV1.21B27,2013-10-11 02:46:00,
2013-10-10 22:51:00,73.4,68.6,30.00,North,350,0.0,0.0,85,0.00,,,0.00,WeatherCatV1.21B27,2013-10-11 02:51:00,
2013-10-10 22:56:00,73.4,68.6,30.00,North,355,0.0,0.0,85,0.00,,,0.00,WeatherCatV1.21B27,2013-10-11 02:56:00,
2013-10-10 23:01:00,73.4,68.6,29.99,North,355,0.0,0.0,85,0.00,,,0.00,WeatherCatV1.21B27,2013-10-11 03:01:00,
2013-10-10 23:06:00,73.5,68.7,29.99,North,355,0.0,0.0,85,0.00,,,0.00,WeatherCatV1.21B27,2013-10-11 03:06:00,
2013-10-10 23:11:00,73.5,68.7,29.99,North,355,0.0,0.0,85,0.00,,,0.00,WeatherCatV1.21B27,2013-10-11 03:11:00,
2013-10-10 23:16:00,73.5,68.7,29.99,North,355,0.0,0.0,85,0.00,,,0.00,WeatherCatV1.21B27,2013-10-11 03:16:00,
2013-10-10 23:21:00,73.4,68.6,29.99,North,355,0.0,0.0,85,0.00,,,0.00,WeatherCatV1.21B27,2013-10-11 03:21:00,
2013-10-10 23:26:00,73.3,68.5,30.00,North,5,0.0,1.0,85,0.00,,,0.00,WeatherCatV1.21B27,2013-10-11 03:26:00,
2013-10-10 23:31:00,73.3,68.5,30.00,North,5,0.0,0.0,85,0.00,,,0.00,WeatherCatV1.21B27,2013-10-11 03:31:00,
2013-10-10 23:36:00,73.2,68.8,30.00,North,5,1.0,2.0,86,0.00,,,0.00,WeatherCatV1.21B27,2013-10-11 03:36:00,
2013-10-10 23:41:00,73.1,68.7,30.00,North,5,0.0,0.0,86,0.00,,,0.00,WeatherCatV1.21B27,2013-10-11 03:41:00,
2013-10-10 23:46:00,73.0,68.6,30.00,North,5,0.0,0.0,86,0.00,,,0.00,WeatherCatV1.21B27,2013-10-11 03:46:00,
2013-10-10 23:51:00,73.0,68.6,30.00,North,5,0.0,0.0,86,0.00,,,0.00,WeatherCatV1.21B27,2013-10-11 03:51:00,
2013-10-10 23:56:00,72.9,68.5,30.00,North,5,0.0,0.0,86,0.00,,,0.00,WeatherCatV1.21B27,2013-10-11 03:56:00,